DIRECTV 4S

Last updated on Jan. 1, 2021, 6:25 a.m. UTC

1 26985U 01052A   20366.84909684 -.00000086  00000-0  00000-0 0  9998
2 26985   1.1836  93.6796 0002459 281.6392 215.2643  0.99266741 31283
UTC
Height (km)
Latitude
Longitude
Inclination
Orbital Period
UTC large
Height (km)
Speed (km/s)
/
Latitude / Longitude
Inclination (degrees)
Orbital Period (minutes)
Azimuth
Elevation
Range (km)
Doppler Factor
iOS Compass Heading
iOS Angle

Next 30 passes for location: Hong Kong

Rise time Rise Azimuth (degrees) Set time Set Azimuth (degrees) Duration Max altitude (degrees)

No matching passes for this satellites